Location: Buisson
(44.2787°N, 4.9969°E)
Time: 06:29:24
(UTC+00:00)

ADEOS II - Pass Details

Date: 18 April 2021
Orbit: 798 x 801 km, 98.6° (Epoch: 06 May)

Event Time Altitude Azimuth Distance (km) Brightness Sun altitude
Rises 01:07:18 0° 23° (NNE) 3,317 6.4 -31.4°
Reaches altitude 10° 01:09:54 10° 33° (NNE) 2,381 5.4 -31.2°
Maximum altitude 01:14:34 32° 96° (E) 1,353 3.4 -30.8°
Enters shadow 01:14:35 32° 96° (E) 1,353 3.4 -30.8°
